Tracking 17154 objects as of 2-August-2015
HD Live streaming from Space Station

UNISAT 3

Track UNISAT 3 now!
10-day predictions
UNISAT 3 is classified as:


NORAD ID: 28373
Int'l Code: 2004-025H
Perigee: 698.8 km
Apogee: 798.7 km
Inclination: 98.3 °
Period: 99.6 minutes
Semi major axis: 7119 km
RCS: 0.116 m2 (medium)
Launch date: June 29, 2004
Source: Italy (IT)

Unisat 3 is an Italian, scientific microsatellite (12 kg) designed to test solar cells in the space environment.
Your satellite tracking list
Your tracking list is empty





NASA's NSSDC Master Catalog

Two Line Element Set (TLE):
1 28373U 04025H   15212.92726441  .00000121  00000-0  45865-4 0  9996
2 28373 098.2542 159.4009 0070145 133.6362 227.0676 14.45123906584770

Source of the keplerian elements: AFSPC

N2YO: 256